• In Uzbekistan
  • List of Countries
  • For 7 days
  • Water Temperature
  • Satellite Maps
  • Weather Map
  • Weather Widgets
  • user-avatar
    Login

    Hourly Weather Berat

    Today, 26 February, Sunday

    Time Temperature Precipitation Wind Pressure Humidity
    00:00 +10°C° 0 mm 3 mps 747 mmHg 86%
    01:00 +10°C° 0 mm 3 mps 747 mmHg 86%
    02:00 +10°C° 0 mm 3 mps 747 mmHg 86%
    03:00 +9°C° 0 mm 3 mps 747 mmHg 86%
    04:00 +9°C° 0 mm 3 mps 747 mmHg 86%
    05:00 +9°C° 0 mm 3 mps 747 mmHg 86%
    06:00 +9°C° 0 mm 3 mps 747 mmHg 86%
    07:00 +10°C° 0 mm 3 mps 747 mmHg 85%
    08:00 +11°C° 0 mm 3 mps 747 mmHg 81%
    09:00 +14°C° 0 mm 2 mps 747 mmHg 77%
    10:00 +16°C° 0 mm 2 mps 747 mmHg 73%
    11:00 +17°C° 0 mm 2 mps 747 mmHg 68%
    12:00 +18°C° 0 mm 2 mps 747 mmHg 63%
    13:00 +18°C° 0 mm 2 mps 747 mmHg 60%
    14:00 +18°C° 0 mm 2 mps 747 mmHg 63%
    15:00 +17°C° 0 mm 2 mps 747 mmHg 66%
    16:00 +17°C° 0 mm 2 mps 747 mmHg 69%
    17:00 +16°C° 0.1 mm 2 mps 747 mmHg 75%
    18:00 +14°C° 0.1 mm 1 mps 747 mmHg 81%
    19:00 +13°C° 0.1 mm 1 mps 747 mmHg 87%
    20:00 +13°C° 0.1 mm 1 mps 747 mmHg 88%
    21:00 +12°C° 0.1 mm 1 mps 747 mmHg 89%
    22:00 +12°C° 0.1 mm 1 mps 747 mmHg 90%
    23:00 +11°C° 0 mm 1 mps 747 mmHg 90%

    Tomorrow, 27 February, Monday

    Time Temperature Precipitation Wind Pressure Humidity
    00:00 +11°C° 0 mm 1 mps 747 mmHg 91%
    01:00 +9°C° 0 mm 2 mps 747 mmHg 91%
    02:00 +9°C° 0 mm 2 mps 746 mmHg 90%
    03:00 +9°C° 0 mm 2 mps 746 mmHg 89%
    04:00 +9°C° 0 mm 2 mps 746 mmHg 88%
    05:00 +9°C° 0 mm 2 mps 746 mmHg 87%
    06:00 +9°C° 0 mm 2 mps 746 mmHg 86%
    07:00 +9°C° 0 mm 2 mps 746 mmHg 85%
    08:00 +13°C° 0 mm 1 mps 746 mmHg 77%
    09:00 +15°C° 0 mm 1 mps 746 mmHg 69%
    10:00 +18°C° 0 mm 1 mps 746 mmHg 61%
    11:00 +19°C° 0 mm 1 mps 746 mmHg 58%
    12:00 +20°C° 0 mm 1 mps 746 mmHg 55%
    13:00 +19°C° 0 mm 2 mps 745 mmHg 52%
    14:00 +19°C° 0 mm 2 mps 745 mmHg 56%
    15:00 +18°C° 0 mm 2 mps 745 mmHg 59%
    16:00 +18°C° 0 mm 2 mps 745 mmHg 63%
    17:00 +16°C° 0 mm 1 mps 745 mmHg 70%
    18:00 +14°C° 0 mm 1 mps 745 mmHg 78%
    19:00 +11°C° 0 mm 0 mps 745 mmHg 86%
    20:00 +10°C° 0 mm 0 mps 745 mmHg 86%
    21:00 +10°C° 0 mm 0 mps 745 mmHg 87%
    22:00 +10°C° 0 mm 1 mps 745 mmHg 88%
    23:00 +10°C° 0 mm 1 mps 745 mmHg 88%

    Day after tomorrow, 28 February, Tuesday

    Time Temperature Precipitation Wind Pressure Humidity
    00:00 +10°C° 0 mm 1 mps 745 mmHg 88%
    01:00 +9°C° 0 mm 1 mps 745 mmHg 88%
    02:00 +9°C° 0 mm 1 mps 745 mmHg 88%
    03:00 +9°C° 0 mm 1 mps 745 mmHg 88%
    04:00 +9°C° 0 mm 1 mps 744 mmHg 88%
    05:00 +9°C° 0 mm 1 mps 745 mmHg 86%
    06:00 +9°C° 0 mm 1 mps 745 mmHg 85%
    07:00 +10°C° 0 mm 1 mps 745 mmHg 83%
    08:00 +12°C° 0 mm 1 mps 745 mmHg 75%
    09:00 +15°C° 0 mm 2 mps 745 mmHg 66%
    10:00 +17°C° 0 mm 2 mps 745 mmHg 58%
    11:00 +17°C° 0 mm 2 mps 745 mmHg 57%
    12:00 +18°C° 0 mm 3 mps 745 mmHg 55%
    13:00 +18°C° 0 mm 3 mps 744 mmHg 54%
    14:00 +18°C° 0 mm 3 mps 744 mmHg 57%
    15:00 +17°C° 0 mm 3 mps 744 mmHg 60%
    16:00 +17°C° 0 mm 3 mps 743 mmHg 64%
    17:00 +14°C° 0 mm 3 mps 744 mmHg 72%
    18:00 +13°C° 0 mm 3 mps 744 mmHg 80%
    19:00 +11°C° 0 mm 3 mps 744 mmHg 87%
    20:00 +10°C° 0 mm 3 mps 744 mmHg 88%
    21:00 +10°C° 0 mm 3 mps 744 mmHg 89%
    22:00 +10°C° 0 mm 3 mps 744 mmHg 90%
    23:00 +10°C° 0 mm 3 mps 744 mmHg 90%

    1 March, Wednesday

    Time Temperature Precipitation Wind Pressure Humidity
    00:00 +9°C° 0 mm 3 mps 744 mmHg 91%
    01:00 +8°C° 0 mm 4 mps 744 mmHg 91%
    02:00 +8°C° 0 mm 4 mps 743 mmHg 91%
    03:00 +8°C° 0 mm 4 mps 743 mmHg 91%
    04:00 +8°C° 0 mm 4 mps 743 mmHg 91%
    05:00 +8°C° 0 mm 4 mps 743 mmHg 91%
    06:00 +8°C° 0 mm 4 mps 743 mmHg 91%
    07:00 +10°C° 0 mm 4 mps 743 mmHg 90%
    08:00 +11°C° 0.1 mm 4 mps 743 mmHg 86%
    09:00 +12°C° 0.1 mm 4 mps 742 mmHg 83%
    10:00 +13°C° 0.1 mm 5 mps 742 mmHg 79%
    11:00 +14°C° 0.5 mm 5 mps 742 mmHg 78%
    12:00 +14°C° 0.5 mm 5 mps 741 mmHg 78%
    13:00 +14°C° 0.5 mm 5 mps 741 mmHg 77%
    14:00 +13°C° 1.7 mm 5 mps 741 mmHg 82%
    15:00 +12°C° 1.7 mm 4 mps 741 mmHg 86%
    16:00 +11°C° 1.7 mm 4 mps 741 mmHg 90%
    17:00 +10°C° 0.9 mm 3 mps 741 mmHg 90%
    18:00 +9°C° 0.9 mm 3 mps 742 mmHg 90%
    19:00 +8°C° 0.9 mm 2 mps 743 mmHg 90%
    20:00 +8°C° 0 mm 2 mps 743 mmHg 88%
    21:00 +7°C° 0 mm 2 mps 744 mmHg 87%
    22:00 +7°C° 0 mm 1 mps 744 mmHg 85%
    23:00 +7°C° 0 mm 1 mps 745 mmHg 85%

    2 March, Thursday

    Time Temperature Precipitation Wind Pressure Humidity
    00:00 +7°C° 0 mm 1 mps 745 mmHg 85%
    01:00 +5°C° 0 mm 2 mps 745 mmHg 84%
    02:00 +5°C° 0 mm 2 mps 745 mmHg 85%
    03:00 +5°C° 0 mm 2 mps 745 mmHg 86%
    04:00 +5°C° 0 mm 2 mps 746 mmHg 87%
    05:00 +6°C° 0 mm 1 mps 746 mmHg 86%
    06:00 +7°C° 0 mm 1 mps 746 mmHg 85%
    07:00 +7°C° 0 mm 1 mps 747 mmHg 84%
    08:00 +9°C° 0 mm 1 mps 747 mmHg 74%
    09:00 +11°C° 0 mm 1 mps 747 mmHg 64%
    10:00 +13°C° 0 mm 1 mps 747 mmHg 54%
    11:00 +14°C° 0 mm 1 mps 747 mmHg 50%
    12:00 +14°C° 0 mm 2 mps 747 mmHg 47%
    13:00 +15°C° 0 mm 2 mps 747 mmHg 44%
    14:00 +15°C° 0 mm 2 mps 747 mmHg 46%
    15:00 +14°C° 0 mm 2 mps 747 mmHg 49%
    16:00 +14°C° 0 mm 2 mps 746 mmHg 51%
    17:00 +12°C° 0 mm 1 mps 747 mmHg 57%
    18:00 +10°C° 0 mm 1 mps 747 mmHg 64%
    19:00 +8°C° 0 mm 1 mps 747 mmHg 70%
    20:00 +8°C° 0 mm 1 mps 747 mmHg 68%
    21:00 +6°C° 0 mm 0 mps 747 mmHg 67%
    22:00 +6°C° 0 mm 0 mps 748 mmHg 65%
    23:00 +6°C° 0 mm 0 mps 748 mmHg 63%

    3 March, Friday

    Time Temperature Precipitation Wind Pressure Humidity
    00:00 +6°C° 0 mm 0 mps 747 mmHg 61%
    01:00 +5°C° 0 mm 0 mps 747 mmHg 59%
    02:00 +5°C° 0 mm 0 mps 747 mmHg 57%
    03:00 +5°C° 0 mm 0 mps 747 mmHg 56%
    04:00 +5°C° 0 mm 0 mps 747 mmHg 55%
    05:00 +6°C° 0 mm 0 mps 747 mmHg 53%
    06:00 +6°C° 0 mm 0 mps 747 mmHg 52%
    07:00 +8°C° 0 mm 1 mps 748 mmHg 50%
    08:00 +10°C° 0 mm 1 mps 748 mmHg 43%
    09:00 +13°C° 0 mm 1 mps 748 mmHg 37%
    10:00 +16°C° 0 mm 1 mps 748 mmHg 30%
    11:00 +16°C° 0 mm 1 mps 748 mmHg 31%
    12:00 +18°C° 0 mm 1 mps 748 mmHg 31%
    13:00 +18°C° 0 mm 1 mps 748 mmHg 32%
    14:00 +18°C° 0 mm 1 mps 748 mmHg 38%
    15:00 +16°C° 0 mm 1 mps 748 mmHg 44%
    16:00 +16°C° 0 mm 1 mps 748 mmHg 49%
    17:00 +13°C° 0 mm 1 mps 748 mmHg 58%
    18:00 +11°C° 0 mm 1 mps 748 mmHg 66%
    19:00 +9°C° 0 mm 1 mps 748 mmHg 74%
    20:00 +9°C° 0 mm 1 mps 748 mmHg 73%
    21:00 +8°C° 0 mm 1 mps 748 mmHg 72%
    22:00 +8°C° 0 mm 1 mps 748 mmHg 71%
    23:00 +8°C° 0 mm 1 mps 748 mmHg 71%
    Show more